AirNav   Everest Fuels
 
 707 users online  

7PS3 Susquehanna High School Heliport
Susquehanna, Pennsylvania, USA

GOING TO SUSQUEHANNA?


FAA INFORMATION EFFECTIVE 18 JUNE 2020

Location

FAA Identifier: 7PS3
Lat/Long: 41-56-59.2300N 075-35-20.2300W
41-56.987167N 075-35.337167W
41.9497861,-75.5889528
(estimated)
Elevation: 1040 ft. / 317 m (estimated)
Variation: 13W (2005)
From city: 1 mile NW of SUSQUEHANNA, PA
Time zone: UTC -4 (UTC -5 during Standard Time)
Zip code: 18847

Heliport Operations

Heliport use: Private use, MEDICAL USE.
Activation date: 01/2007
Control tower: no
ARTCC: NEW YORK CENTER
FSS: WILLIAMSPORT FLIGHT SERVICE STATION
NOTAMs facility: FDC (NOTAM-D service not available)
Attendance: UNATNDD
Segmented circle: no
Lights: FOR PERIMETER LIGHTS CALL 570-853-4921.

Heliport Communications

BINGHAMTON APPROACH: 118.6
BINGHAMTON DEPARTURE: 118.6
FIVLU DP: 118.6

Nearby radio navigation aids

VOR radial/distance  VOR name  Freq  Var
HNKr252/13.9HANCOCK VOR/DME116.8011W
CFBr127/27.4BINGHAMTON VOR/DME112.2010W
DNYr255/31.3DELANCEY VOR/DME112.1011W
RKAr218/34.7ROCKDALE VOR/DME112.6011W

Heliport Services

Runway Information

Helipad H1

Dimensions: 50 x 50 ft. / 15 x 15 m
Surface: turf, in fair condition
Runway edge lights: PERI
Latitude: 41-56.987167N
Longitude: 075-35.337167W
Elevation: 1040.0 ft.
Traffic pattern: leftleft
Markings: none, in fair condition

Heliport Ownership and Management from official FAA records

Ownership: Privately-owned
Owner: SUSQUEHANNA HIGH SCHOOL
3192 TUNPIKE ST.
SUSQUEHANNA, PA 18847-9504
Phone 570-853-4921
Manager: BRONSON STONE
3192 TUNPIKE ST.
SUSQUEHANNA, PA 18847-9504
Phone 570-853-4921
(520) 709-3190

Additional Remarks

FOR CD CTC NEW YORK ARTCC AT 631-468-1425.

Instrument Procedures

There are no published instrument procedures at 7PS3.

Some nearby airports with instrument procedures:

N23 - Sidney Municipal Airport (23 nm N)
9N3 - Seamans Field Airport (23 nm S)
KBGM - Greater Binghamton Airport/Edwin A Link Field (23 nm NW)
KCZG - Tri-Cities Airport (24 nm W)
N30 - Cherry Ridge Airport (30 nm SE)
 
Loc | Ops | Rwys | IFR | FBO | Links
Com | Nav | Svcs | Stats | Notes
Area around 7PS3 (Susquehanna High School Heliport)
 
Road maps at: MapQuest Bing Google
 
Aerial photo
No photo
 
Sectional chart

 
Airport distance calculator
Flying to Susquehanna High School Heliport? Find the distance to fly.

From to 7PS3

Sunrise and sunset
Times for 10-Jul-2020
 Local
(UTC-4)
 Zulu
(UTC)
Morning civil twilight05:0409:04
Sunrise05:3809:38
Sunset20:3800:38
Evening civil twilight21:1101:11

Current date and time
Zulu (UTC)  11-Jul-2020 03:47:58
Local (UTC-4)  10-Jul-2020 23:47:58
 
METAR
KBGM 
24nm NW 
110310Z AUTO 02008KT 5SM RA BR SCT010 SCT046 OVC085 21/20 A2975 RMK AO2 P0007 T02060200
KAVP 
38nm S 
110331Z 23004KT 1 3/4SM R04/6000VP6000FT +RA BR SCT008 BKN013 OVC018 22/21 A2966 RMK AO2 P0057 T02220211
KMSV 
39nm E 
110256Z AUTO 07009KT 4SM -RA BR OVC006 21/21 A2970 RMK AO2 CIG 003V010 SLP047 P0005 60011 T02060206 58018
TAF
KBGM 
24nm NW 
101730Z 1018/1118 13005KT P6SM BKN060 TEMPO 1022/1024 4SM -SHRA OVC025 FM110000 10004KT 5SM -RA OVC020 FM110300 09005KT 4SM RA OVC008 FM110500 VRB03KT P6SM BKN005 FM111000 VRB03KT P6SM BKN019
NOTAMs
Click for the latest NOTAMs
NOTAMs are issued by the DoD/FAA and will open in a separate window not controlled by AirNav.

 

 
 

Would you like to see your business listed on this page?

 If your business provides an interesting product or service to pilots, flight crews, aircraft, or users of the Susquehanna High School Heliport, you should consider listing it here.  To start the listing process, click on the button below
 
Add a business
 

Other Pages about Susquehanna High School Heliport

Update a link
 
Copyright © AirNav, LLC. All rights reserved. Privacy Policy  Contact